"startDT [UTC]","vpos","CH4 [ppm]","stdev(CH4) [ppm]","CO2 [ppm]","stdev(CO2) [ppm]","H2O [ppm]","stdev(H2O)","p_LGR [torr]","T_LGR [C]","mt1_LGR [us]","mt2_LGR [us]","T_ECpre [C]","T_EC1 [C]","T_EC2 [C]","p_inlet [hPa]","p_in [hPa]","p_out [hPa]","T_inlet [C]","RH_inlet [%]","dwpt_inlet [C]","T_vent [C]","RH_vent [%]","dwpt_vent [C]","flow_vent [l min-1]","flow_inlet [l min-1]","dwpt_sample [C]","T_room [C]"
2012-01-20 00:00:00,0.0,1.9222,0.0012,405.55,0.25,-1.0,0.0,138.14,28.09,24.60,36.32,0.04,-272.74,-272.74,-51,548,-946,22.1,1.9,-29.9,22.0,2.0,-29.7,5.73,2.47,-30.2,26.1
2012-01-20 00:01:00,0.0,1.9222,0.0009,405.49,0.21,-1.0,0.0,138.14,28.08,24.60,36.32,0.04,-272.73,-272.74,-50,549,-946,22.1,1.9,-29.9,22.0,2.0,-29.6,5.73,2.47,-30.1,26.3
2012-01-20 00:02:00,0.0,1.9224,0.0009,405.53,0.23,-1.0,0.0,138.14,28.07,24.60,36.32,0.04,-272.74,-272.74,-51,549,-946,22.2,1.9,-29.9,22.1,2.0,-29.5,5.73,2.46,-30.1,26.4
2012-01-20 00:03:00,0.0,1.9220,0.0009,405.64,0.26,-0.8,1.4,138.13,28.08,24.60,36.32,0.04,-272.74,-272.74,-50,548,-946,22.2,1.9,-29.9,22.1,2.0,-29.5,5.73,2.46,-30.0,26.5
2012-01-20 00:04:00,0.0,1.9237,0.0013,405.57,0.23,-1.0,0.0,138.13,28.09,24.60,36.32,0.04,-272.73,-272.73,-50,548,-946,22.2,1.9,-29.9,22.1,2.0,-29.5,5.73,2.44,-29.9,26.6
2012-01-20 00:05:00,0.0,1.9251,0.0010,405.47,0.24,-0.9,0.6,138.12,28.10,24.60,36.32,0.04,-272.74,-272.74,-50,548,-946,22.2,1.9,-29.8,22.1,2.0,-29.5,5.73,2.44,-29.8,26.7
2012-01-20 00:06:00,0.0,1.9255,0.0010,405.48,0.23,-0.4,3.2,138.12,28.11,24.60,36.32,0.04,-272.74,-272.74,-50,548,-946,22.2,1.9,-29.7,22.2,2.0,-29.5,5.73,2.44,-29.7,26.7
2012-01-20 00:07:00,0.0,1.9263,0.0009,405.44,0.26,-0.0,5.0,138.12,28.13,24.60,36.32,0.04,-272.74,-272.74,-50,548,-946,22.3,1.9,-29.7,22.2,2.0,-29.4,5.73,2.43,-29.6,26.8
2012-01-20 00:08:00,0.0,1.9268,0.0009,405.44,0.25,2.3,11.3,138.11,28.15,24.60,36.33,0.04,-272.73,-272.73,-50,548,-946,22.3,1.9,-29.7,22.2,2.0,-29.4,5.73,2.42,-29.5,26.9
2012-01-20 00:09:00,0.0,1.9270,0.0008,405.47,0.21,2.5,10.0,138.11,28.18,24.60,36.32,0.04,-272.73,-272.74,-50,549,-946,22.3,1.9,-29.6,22.3,2.0,-29.4,5.73,2.42,-29.5,27.0
2012-01-20 00:10:00,0.0,1.9280,0.0009,405.56,0.24,4.4,12.2,138.11,28.20,24.60,36.33,0.04,-272.73,-272.73,-50,549,-946,22.4,1.9,-29.7,22.3,2.0,-29.3,5.73,2.41,-29.4,27.1
2012-01-20 00:11:00,0.0,1.9278,0.0008,405.61,0.20,5.3,15.0,138.10,28.22,24.60,36.33,0.04,-272.73,-272.73,-50,549,-946,22.4,1.9,-29.6,22.3,2.0,-29.3,5.73,2.40,-29.3,27.2
2012-01-20 00:12:00,0.0,1.9285,0.0007,405.73,0.25,7.7,15.8,138.10,28.24,24.60,36.32,0.04,-272.74,-272.74,-50,549,-946,22.4,1.9,-29.6,22.4,2.0,-29.2,5.73,2.41,-29.3,27.2
2012-01-20 00:13:00,0.0,1.9288,0.0013,405.69,0.19,9.2,20.2,138.10,28.26,24.60,36.33,0.04,-272.74,-272.73,-50,549,-946,22.5,1.9,-29.6,22.4,2.0,-29.2,5.73,2.42,-29.2,27.3
2012-01-20 00:14:00,0.0,1.9288,0.0011,405.72,0.22,11.9,18.9,138.10,28.28,24.61,36.33,0.04,-272.74,-272.74,-50,549,-946,22.5,1.9,-29.6,22.4,2.0,-29.2,5.73,2.42,-29.2,27.4
2012-01-20 00:15:00,0.0,1.9290,0.0009,405.71,0.20,14.8,21.3,138.10,28.30,24.60,36.33,0.04,-272.74,-272.73,-50,549,-947,22.6,1.9,-29.5,22.5,2.0,-29.3,5.73,2.42,-29.1,27.2
2012-01-20 00:16:00,0.0,1.9283,0.0011,405.72,0.24,8.4,14.8,138.10,28.32,24.60,36.33,0.04,-272.73,-272.74,-50,550,-946,22.6,1.9,-29.5,22.5,2.0,-29.3,5.73,2.55,-29.1,26.7
2012-01-20 00:17:00,0.0,1.9281,0.0008,405.68,0.30,10.8,17.2,138.11,28.32,24.60,36.33,0.04,-272.74,-272.74,-51,550,-947,22.6,1.9,-29.5,22.5,2.0,-29.2,5.73,2.52,-29.2,26.2
2012-01-20 00:18:00,0.0,1.9276,0.0010,405.59,0.22,5.7,15.7,138.12,28.32,24.61,36.33,0.04,-272.73,-272.73,-51,550,-947,22.5,1.9,-29.5,22.4,2.0,-29.2,5.73,2.20,-29.4,25.8
2012-01-20 00:19:00,0.0,1.9272,0.0011,405.60,0.26,1.3,7.8,138.13,28.31,24.61,36.33,0.04,-272.73,-272.74,-50,551,-947,22.5,1.9,-29.6,22.3,2.0,-29.3,5.73,2.67,-29.6,25.6
2012-01-20 00:20:00,0.0,1.9266,0.0009,405.63,0.19,0.2,6.9,138.13,28.29,24.61,36.33,0.04,-272.74,-272.74,-51,550,-948,22.4,1.9,-29.6,22.3,2.0,-29.2,5.73,2.33,-29.7,25.3
2012-01-20 00:21:00,0.0,1.9270,0.0010,405.74,0.26,0.3,5.2,138.14,28.28,24.60,36.32,0.04,-272.73,-272.73,-49,550,-947,22.4,2.0,-29.5,22.2,2.0,-29.3,5.73,2.38,-29.9,25.2
2012-01-20 00:22:00,0.0,1.9261,0.0011,405.65,0.28,-1.0,0.0,138.14,28.25,24.60,36.33,0.04,-272.74,-272.74,-52,550,-947,22.3,2.0,-29.5,22.2,2.0,-29.3,5.73,2.65,-30.0,25.1
2012-01-20 00:23:00,0.0,1.9249,0.0010,405.59,0.21,-0.9,1.0,138.15,28.23,24.60,36.32,0.04,-272.74,-272.73,-50,550,-947,22.3,2.0,-29.6,22.1,2.0,-29.2,5.73,2.16,-30.1,25.0
2012-01-20 00:24:00,0.0,1.9247,0.0010,405.54,0.25,-0.9,0.7,138.15,28.20,24.60,36.32,0.04,-272.74,-272.73,-52,549,-947,22.2,2.0,-29.6,22.1,2.0,-29.3,5.73,2.66,-30.3,24.9
2012-01-20 00:25:00,0.0,1.9228,0.0012,405.48,0.24,-1.0,0.0,138.16,28.16,24.60,36.32,0.04,-272.74,-272.74,-50,549,-947,22.1,2.0,-29.6,22.0,2.0,-29.3,5.73,2.37,-30.4,24.9
2012-01-20 00:26:00,0.0,1.9217,0.0010,405.44,0.21,-1.0,0.0,138.16,28.13,24.60,36.31,0.04,-272.74,-272.75,-50,549,-947,22.1,2.0,-29.6,21.9,2.0,-29.3,5.73,2.33,-30.4,25.3
2012-01-20 00:27:00,0.0,1.9221,0.0009,405.44,0.26,-1.0,0.0,138.15,28.10,24.60,36.31,0.04,-272.74,-272.74,-51,548,-947,22.1,2.0,-29.6,21.9,2.0,-29.3,5.73,2.44,-30.3,25.7
2012-01-20 00:28:00,0.0,1.9227,0.0011,405.35,0.22,-0.8,1.5,138.15,28.09,24.60,36.32,0.04,-272.74,-272.73,-51,549,-947,22.1,2.0,-29.6,22.0,2.0,-29.3,5.73,2.45,-30.2,26.0
2012-01-20 00:29:00,0.0,1.9233,0.0011,405.39,0.23,-1.0,0.0,138.14,28.08,24.60,36.32,0.04,-272.74,-272.74,-51,549,-947,22.1,2.0,-29.5,22.0,2.0,-29.3,5.73,2.47,-30.1,26.2
2012-01-20 00:30:00,0.0,1.9238,0.0010,405.32,0.25,-0.7,2.6,138.14,28.08,24.60,36.32,0.04,-272.74,-272.74,-50,549,-947,22.1,2.0,-29.5,22.1,2.0,-29.2,5.73,2.47,-30.0,26.3
2012-01-20 00:31:00,0.0,1.9247,0.0011,405.43,0.21,-1.0,0.0,138.13,28.09,24.60,36.32,0.04,-272.73,-272.74,-50,548,-947,22.2,2.0,-29.5,22.1,2.0,-29.2,5.73,2.47,-29.9,26.4
2012-01-20 00:32:00,0.0,1.9248,0.0012,405.42,0.22,-1.0,0.0,138.13,28.10,24.60,36.32,0.04,-272.73,-272.74,-50,549,-947,22.2,2.0,-29.5,22.1,2.0,-29.2,5.73,2.45,-29.8,26.5
2012-01-20 00:33:00,0.0,1.9255,0.0010,405.43,0.23,-0.4,3.4,138.12,28.11,24.60,36.32,0.04,-272.74,-272.74,-50,548,-947,22.2,2.0,-29.6,22.1,2.0,-29.2,5.73,2.46,-29.8,26.6
2012-01-20 00:34:00,0.0,1.9260,0.0010,405.33,0.24,-0.1,3.4,138.12,28.12,24.60,36.32,0.04,-272.73,-272.74,-50,548,-947,22.3,2.0,-29.6,22.1,2.0,-29.2,5.73,2.46,-29.7,26.7
2012-01-20 00:35:00,0.0,1.9262,0.0007,405.36,0.21,1.5,7.1,138.12,28.14,24.60,36.32,0.04,-272.73,-272.74,-50,549,-947,22.3,2.0,-29.5,22.2,2.0,-29.2,5.73,2.45,-29.6,26.8
2012-01-20 00:36:00,0.0,1.9262,0.0010,405.31,0.24,1.5,7.2,138.11,28.16,24.60,36.32,0.04,-272.74,-272.74,-50,549,-947,22.3,2.0,-29.5,22.2,2.0,-29.2,5.73,2.45,-29.5,26.9
2012-01-20 00:37:00,0.0,1.9267,0.0008,405.33,0.21,3.6,10.8,138.11,28.17,24.60,36.32,0.04,-272.74,-272.74,-50,549,-947,22.3,2.0,-29.5,22.2,2.0,-29.1,5.73,2.45,-29.5,26.9
2012-01-20 00:38:00,0.0,1.9274,0.0010,405.34,0.24,5.9,12.9,138.11,28.19,24.60,36.32,0.04,-272.73,-272.73,-50,549,-947,22.3,2.0,-29.5,22.3,2.0,-29.1,5.73,2.44,-29.4,27.0
2012-01-20 00:39:00,0.0,1.9266,0.0009,405.29,0.23,7.7,17.0,138.10,28.21,24.60,36.33,0.04,-272.74,-272.74,-50,549,-947,22.4,2.0,-29.5,22.3,2.0,-29.1,5.73,2.44,-29.4,27.1
2012-01-20 00:40:00,0.0,1.9270,0.0009,405.35,0.21,10.0,19.1,138.10,28.23,24.60,36.33,0.04,-272.74,-272.74,-50,549,-947,22.4,2.0,-29.5,22.3,2.0,-29.1,5.73,2.43,-29.3,27.2
2012-01-20 00:41:00,0.0,1.9269,0.0010,405.45,0.20,14.8,25.0,138.10,28.25,24.60,36.32,0.04,-272.73,-272.73,-50,549,-947,22.4,2.0,-29.5,22.4,2.0,-29.1,5.73,2.42,-29.2,27.2
2012-01-20 00:42:00,0.0,1.9270,0.0011,405.46,0.24,10.2,18.8,138.10,28.27,24.60,36.33,0.04,-272.73,-272.74,-50,549,-947,22.5,2.0,-29.4,22.4,2.0,-29.0,5.73,2.42,-29.1,27.3
2012-01-20 00:43:00,0.0,1.9278,0.0010,405.49,0.20,12.5,19.5,138.10,28.29,24.60,36.33,0.04,-272.73,-272.73,-50,549,-947,22.5,2.0,-29.4,22.4,2.0,-29.0,5.73,2.41,-29.0,27.4
2012-01-20 00:44:00,0.0,1.9275,0.0010,405.49,0.21,13.0,19.3,138.10,28.31,24.60,36.33,0.04,-272.74,-272.73,-50,550,-947,22.6,2.0,-29.4,22.5,2.0,-29.0,5.73,2.49,-29.0,26.9
2012-01-20 00:45:00,0.0,1.9275,0.0011,405.44,0.19,7.7,13.4,138.10,28.32,24.61,36.33,0.04,-272.73,-272.73,-49,550,-947,22.6,2.0,-29.3,22.5,2.0,-29.0,5.73,2.53,-29.1,26.4
2012-01-20 00:46:00,0.0,1.9275,0.0008,405.32,0.28,6.8,14.4,138.11,28.32,24.60,36.33,0.04,-272.74,-272.74,-50,550,-947,22.5,2.0,-29.4,22.4,2.0,-29.0,5.73,2.22,-29.2,26.1
2012-01-20 00:47:00,0.0,1.9269,0.0010,405.32,0.20,6.2,17.4,138.12,28.32,24.61,36.33,0.04,-272.74,-272.73,-51,550,-948,22.5,2.0,-29.4,22.4,2.0,-29.1,5.73,2.58,-29.4,25.8
2012-01-20 00:48:00,0.0,1.9266,0.0010,405.43,0.26,1.2,7.4,138.13,28.31,24.60,36.32,0.04,-272.74,-272.74,-50,551,-948,22.5,2.0,-29.5,22.3,2.0,-29.1,5.73,2.48,-29.5,25.6
2012-01-20 00:49:00,0.0,1.9260,0.0007,405.54,0.25,-0.3,2.9,138.13,28.29,24.60,36.32,0.04,-272.74,-272.73,-51,550,-948,22.4,2.0,-29.5,22.3,2.0,-29.1,5.73,2.25,-29.7,25.4
2012-01-20 00:50:00,0.0,1.9254,0.0011,405.52,0.28,-0.6,2.8,138.14,28.27,24.60,36.32,0.04,-272.73,-272.73,-49,550,-948,22.3,2.0,-29.5,22.2,2.0,-29.2,5.73,2.72,-29.8,25.2
2012-01-20 00:51:00,0.0,1.9251,0.0010,405.41,0.24,-1.0,0.0,138.15,28.24,24.60,36.32,0.04,-272.73,-272.73,-52,550,-948,22.3,2.0,-29.4,22.2,2.0,-29.2,5.73,2.19,-30.0,25.1
2012-01-20 00:52:00,0.0,1.9239,0.0009,405.22,0.21,-1.0,0.0,138.15,28.22,24.60,36.32,0.04,-272.73,-272.74,-50,550,-948,22.2,2.0,-29.4,22.1,2.1,-29.2,5.73,2.58,-30.1,24.9
2012-01-20 00:53:00,0.0,1.9231,0.0011,405.21,0.22,-1.0,0.0,138.16,28.19,24.60,36.32,0.04,-272.73,-272.74,-51,550,-948,22.2,2.0,-29.5,22.0,2.1,-29.1,5.73,2.48,-30.2,24.7
2012-01-20 00:54:00,0.0,1.9218,0.0009,405.17,0.19,-1.0,0.0,138.16,28.15,24.60,36.32,0.04,-272.74,-272.74,-50,549,-948,22.1,2.0,-29.5,22.0,2.1,-29.2,5.73,2.27,-30.3,24.9
2012-01-20 00:55:00,0.0,1.9209,0.0011,405.16,0.21,-0.9,0.5,138.16,28.12,24.60,36.31,0.04,-272.73,-272.74,-51,549,-948,22.1,2.0,-29.6,21.9,2.1,-29.2,5.73,2.50,-30.3,25.4
2012-01-20 00:56:00,0.0,1.9211,0.0009,405.16,0.21,-0.8,1.3,138.15,28.10,24.60,36.31,0.04,-272.74,-272.74,-51,549,-948,22.1,2.0,-29.5,22.0,2.1,-29.2,5.73,2.45,-30.2,25.8
2012-01-20 00:57:00,0.0,1.9220,0.0012,405.04,0.27,-1.0,0.0,138.15,28.09,24.60,36.32,0.04,-272.74,-272.74,-51,549,-948,22.1,2.0,-29.5,22.0,2.1,-29.1,5.73,2.42,-30.1,26.0
2012-01-20 00:58:00,0.0,1.9226,0.0011,405.05,0.20,-1.0,0.0,138.14,28.08,24.60,36.32,0.04,-272.73,-272.73,-50,549,-947,22.1,2.0,-29.5,22.0,2.1,-29.1,5.73,2.42,-30.0,26.2
2012-01-20 00:59:00,0.0,1.9240,0.0009,405.12,0.23,-1.0,0.0,138.13,28.08,24.60,36.32,0.04,-272.74,-272.74,-50,548,-947,22.1,2.0,-29.5,22.1,2.1,-29.1,5.73,2.44,-29.9,26.3
2012-01-20 01:00:00,0.0,1.9247,0.0011,405.12,0.25,-0.5,2.9,138.13,28.09,24.59,36.32,0.04,-272.74,-272.74,-50,549,-947,22.2,2.0,-29.5,22.1,2.1,-29.1,5.73,2.44,-29.8,26.4
2012-01-20 01:01:00,0.0,1.9248,0.0009,405.22,0.21,-0.2,5.3,138.12,28.10,24.60,36.32,0.04,-272.73,-272.74,-50,548,-947,22.2,2.0,-29.4,22.1,2.1,-29.1,5.73,2.45,-29.7,26.5
2012-01-20 01:02:00,0.0,1.9249,0.0009,405.12,0.23,0.1,3.8,138.12,28.11,24.60,36.32,0.04,-272.73,-272.73,-50,549,-947,22.2,2.0,-29.4,22.1,2.1,-29.1,5.73,2.45,-29.7,26.6
2012-01-20 01:03:00,0.0,1.9254,0.0010,405.02,0.25,0.6,6.8,138.12,28.13,24.60,36.32,0.04,-272.74,-272.74,-50,549,-947,22.2,2.0,-29.4,22.2,2.1,-29.0,5.73,2.46,-29.6,26.7
2012-01-20 01:04:00,0.0,1.9256,0.0009,405.02,0.19,2.5,11.6,138.11,28.14,24.60,36.32,0.04,-272.74,-272.74,-50,549,-947,22.3,2.0,-29.4,22.2,2.1,-29.0,5.73,2.47,-29.5,26.8
2012-01-20 01:05:00,0.0,1.9260,0.0011,405.04,0.26,4.6,13.4,138.11,28.16,24.60,36.32,0.04,-272.73,-272.74,-50,549,-947,22.3,2.0,-29.4,22.2,2.1,-29.0,5.73,2.46,-29.4,26.9
2012-01-20 01:06:00,0.0,1.9257,0.0010,405.00,0.24,3.7,12.7,138.11,28.18,24.60,36.32,0.04,-272.74,-272.73,-50,548,-947,22.3,2.0,-29.4,22.3,2.1,-29.0,5.73,2.46,-29.3,27.0
2012-01-20 01:07:00,0.0,1.9260,0.0007,405.16,0.26,8.3,14.8,138.11,28.20,24.60,36.32,0.04,-272.74,-272.74,-50,549,-947,22.4,2.0,-29.3,22.3,2.1,-29.0,5.73,2.46,-29.2,27.0
2012-01-20 01:08:00,0.0,1.9266,0.0009,405.19,0.23,10.3,18.9,138.10,28.22,24.60,36.32,0.04,-272.73,-272.74,-50,549,-947,22.4,2.0,-29.3,22.3,2.1,-28.9,5.73,2.46,-29.2,27.1
2012-01-20 01:09:00,0.0,1.9268,0.0008,405.15,0.22,14.8,21.7,138.10,28.24,24.60,36.33,0.04,-272.73,-272.73,-50,549,-947,22.4,2.0,-29.3,22.4,2.1,-28.9,5.73,2.45,-29.1,27.2
2012-01-20 01:10:00,0.0,1.9266,0.0009,405.11,0.26,11.9,20.1,138.10,28.26,24.60,36.33,0.04,-272.74,-272.74,-50,549,-947,22.5,2.0,-29.3,22.4,2.1,-28.9,5.73,2.44,-29.0,27.3
2012-01-20 01:11:00,0.0,1.9271,0.0009,405.14,0.27,13.4,18.2,138.10,28.28,24.60,36.33,0.04,-272.74,-272.74,-50,550,-947,22.5,2.0,-29.3,22.4,2.1,-28.9,5.73,2.43,-29.0,27.4
2012-01-20 01:12:00,0.0,1.9270,0.0009,405.22,0.24,20.2,29.3,138.10,28.30,24.60,36.33,0.04,-272.73,-272.73,-50,549,-947,22.5,2.0,-29.2,22.5,2.1,-28.8,5.73,2.42,-28.9,27.4
2012-01-20 01:13:00,0.0,1.9267,0.0009,405.21,0.23,13.9,19.3,138.10,28.32,24.61,36.33,0.04,-272.73,-272.74,-51,549,-947,22.6,2.0,-29.2,22.5,2.1,-28.8,5.73,2.50,-28.9,26.9
2012-01-20 01:14:00,0.0,1.9270,0.0009,405.11,0.25,14.7,20.7,138.10,28.33,24.60,36.33,0.04,-272.74,-272.73,-50,550,-948,22.6,2.0,-29.2,22.5,2.1,-28.8,5.73,2.35,-29.0,26.4
2012-01-20 01:15:00,0.0,1.9268,0.0010,405.09,0.20,7.6,18.4,138.11,28.33,24.60,36.32,0.04,-272.73,-272.74,-50,550,-948,22.6,2.0,-29.2,22.4,2.1,-28.9,5.73,2.31,-29.1,25.9
2012-01-20 01:16:00,0.0,1.9264,0.0009,405.18,0.25,5.9,15.7,138.12,28.32,24.60,36.32,0.04,-272.74,-272.73,-52,550,-948,22.5,2.0,-29.2,22.4,2.1,-28.9,5.73,2.70,-29.2,25.7
2012-01-20 01:17:00,0.0,1.9260,0.0010,405.21,0.22,4.6,13.6,138.13,28.31,24.60,36.32,0.04,-272.74,-272.74,-50,550,-948,22.5,2.0,-29.3,22.3,2.1,-28.9,5.73,2.22,-29.4,25.5
2012-01-20 01:18:00,0.0,1.9250,0.0010,405.18,0.26,0.4,5.5,138.13,28.29,24.60,36.32,0.04,-272.73,-272.74,-51,550,-948,22.4,2.0,-29.3,22.3,2.1,-29.0,5.73,2.53,-29.5,25.5
2012-01-20 01:19:00,0.0,1.9247,0.0010,405.27,0.26,-0.6,2.6,138.14,28.27,24.60,36.32,0.04,-272.73,-272.73,-50,550,-948,22.4,2.0,-29.4,22.2,2.1,-29.0,5.73,2.53,-29.7,25.3
2012-01-20 01:20:00,0.0,1.9242,0.0010,405.16,0.29,-0.8,1.2,138.15,28.25,24.60,36.32,0.04,-272.74,-272.74,-51,550,-948,22.3,2.0,-29.3,22.1,2.1,-29.0,5.73,2.21,-29.8,25.1
2012-01-20 01:21:00,0.0,1.9231,0.0009,405.03,0.20,-0.6,2.6,138.15,28.22,24.61,36.32,0.04,-272.75,-272.74,-51,549,-948,22.3,2.0,-29.3,22.1,2.1,-28.9,5.73,2.71,-29.9,25.0
2012-01-20 01:22:00,0.0,1.9226,0.0010,405.06,0.22,-1.0,0.0,138.16,28.19,24.60,36.31,0.04,-272.74,-272.73,-50,550,-948,22.2,2.0,-29.3,22.0,2.1,-29.0,5.73,2.27,-30.0,24.8
2012-01-20 01:23:00,0.0,1.9217,0.0010,405.02,0.25,-1.0,0.0,138.16,28.16,24.60,36.31,0.04,-272.74,-272.74,-51,549,-948,22.1,2.0,-29.3,22.0,2.1,-29.0,5.73,2.40,-30.1,25.1
2012-01-20 01:24:00,0.0,1.9206,0.0010,404.96,0.23,-1.0,0.0,138.16,28.13,24.60,36.31,0.04,-272.73,-272.73,-51,549,-947,22.1,2.0,-29.4,21.9,2.1,-29.0,5.73,2.48,-30.1,25.5
2012-01-20 01:25:00,0.0,1.9211,0.0012,404.90,0.18,-1.0,0.0,138.15,28.11,24.60,36.32,0.04,-272.74,-272.73,-51,549,-948,22.1,2.0,-29.3,22.0,2.1,-29.0,5.73,2.43,-30.0,25.9
2012-01-20 01:26:00,0.0,1.9210,0.0009,404.85,0.21,-0.7,2.3,138.15,28.09,24.60,36.31,0.04,-272.73,-272.74,-51,549,-948,22.1,2.0,-29.3,22.0,2.1,-29.0,5.73,2.42,-29.9,26.1
2012-01-20 01:27:00,0.0,1.9204,0.0009,404.85,0.23,-1.0,0.0,138.14,28.08,24.60,36.32,0.04,-272.74,-272.74,-51,549,-947,22.1,2.0,-29.3,22.1,2.1,-29.0,5.73,2.43,-29.8,26.2
2012-01-20 01:28:00,0.0,1.9214,0.0010,404.86,0.23,-1.0,0.0,138.13,28.08,24.60,36.32,0.04,-272.73,-272.74,-51,549,-947,22.2,2.0,-29.3,22.1,2.1,-28.9,5.73,2.45,-29.7,26.4
2012-01-20 01:29:00,0.0,1.9225,0.0011,404.95,0.26,0.1,7.0,138.13,28.09,24.60,36.32,0.04,-272.73,-272.74,-50,548,-947,22.2,2.0,-29.3,22.1,2.1,-28.9,5.73,2.45,-29.6,26.5
2012-01-20 01:30:00,0.0,1.9236,0.0010,404.95,0.21,0.2,7.4,138.12,28.10,24.60,36.32,0.04,-272.74,-272.74,-51,549,-947,22.2,2.0,-29.3,22.1,2.1,-28.9,5.73,2.46,-29.5,26.6
2012-01-20 01:31:00,0.0,1.9238,0.0010,404.79,0.25,-0.4,3.1,138.12,28.11,24.60,36.32,0.04,-272.74,-272.74,-50,549,-947,22.3,2.0,-29.2,22.2,2.1,-28.9,5.73,2.47,-29.4,26.7
2012-01-20 01:32:00,0.0,1.9242,0.0009,404.90,0.22,0.5,4.6,138.12,28.13,24.60,36.31,0.04,-272.73,-272.73,-50,548,-947,22.3,2.0,-29.3,22.2,2.1,-28.9,5.73,2.46,-29.3,26.8
2012-01-20 01:33:00,0.0,1.9247,0.0010,404.90,0.22,1.8,8.8,138.11,28.15,24.60,36.31,0.04,-272.74,-272.73,-50,549,-947,22.3,2.0,-29.2,22.2,2.1,-28.9,5.73,2.46,-29.3,26.8
2012-01-20 01:34:00,0.0,1.9252,0.0009,404.83,0.21,4.3,13.7,138.11,28.17,24.60,36.32,0.04,-272.75,-272.74,-50,549,-947,22.3,2.0,-29.2,22.2,2.1,-28.9,5.73,2.46,-29.2,26.9
2012-01-20 01:35:00,0.0,1.9252,0.0009,404.77,0.25,6.9,14.8,138.11,28.19,24.60,36.33,0.04,-272.74,-272.73,-50,549,-947,22.4,2.0,-29.2,22.3,2.1,-28.8,5.73,2.46,-29.1,27.0
2012-01-20 01:36:00,0.0,1.9258,0.0011,404.88,0.22,11.1,20.4,138.11,28.21,24.60,36.32,0.04,-272.73,-272.73,-50,549,-947,22.4,2.0,-29.2,22.3,2.1,-28.8,5.73,2.44,-28.9,27.1
2012-01-20 01:37:00,0.0,1.9257,0.0010,404.91,0.20,8.2,14.7,138.10,28.23,24.60,36.32,0.04,-272.74,-272.74,-50,549,-947,22.4,2.0,-29.2,22.4,2.1,-28.8,5.73,2.43,-29.0,27.2
2012-01-20 01:38:00,0.0,1.9255,0.0009,404.97,0.25,7.9,17.0,138.10,28.25,24.60,36.32,0.04,-272.73,-272.73,-50,549,-947,22.5,2.0,-29.1,22.4,2.1,-28.7,5.73,2.42,-28.9,27.2
2012-01-20 01:39:00,0.0,1.9259,0.0009,405.05,0.25,14.7,24.8,138.10,28.27,24.60,36.32,0.04,-272.74,-272.73,-50,549,-947,22.5,2.0,-29.1,22.4,2.1,-28.7,5.73,2.41,-28.9,27.3
2012-01-20 01:40:00,0.0,1.9260,0.0009,405.05,0.22,14.5,20.9,138.10,28.29,24.60,36.33,0.04,-272.74,-272.74,-50,550,-948,22.5,2.0,-29.2,22.4,2.1,-28.7,5.73,2.40,-28.8,27.4
2012-01-20 01:41:00,0.0,1.9265,0.0011,405.04,0.24,18.4,24.0,138.10,28.31,24.60,36.33,0.04,-272.74,-272.74,-50,550,-948,22.6,2.0,-29.2,22.5,2.1,-28.7,5.73,2.46,-28.7,27.2
2012-01-20 01:42:00,0.0,1.9260,0.0010,404.89,0.19,11.1,22.5,138.10,28.32,24.60,36.33,0.04,-272.73,-272.74,-50,550,-948,22.6,2.0,-29.2,22.5,2.1,-28.7,5.73,2.56,-28.8,26.6
2012-01-20 01:43:00,0.0,1.9264,0.0011,404.91,0.18,10.3,18.6,138.11,28.33,24.60,36.33,0.04,-272.73,-272.73,-51,550,-948,22.6,2.0,-29.2,22.5,2.1,-28.7,5.73,2.31,-28.9,26.3
2012-01-20 01:44:00,0.0,1.9257,0.0010,404.91,0.22,6.0,13.6,138.12,28.32,24.60,36.33,0.04,-272.74,-272.74,-50,550,-948,22.5,2.0,-29.2,22.4,2.1,-28.7,5.73,2.38,-29.1,26.0
2012-01-20 01:45:00,0.0,1.9255,0.0010,405.00,0.23,2.6,12.0,138.13,28.31,24.60,36.32,0.04,-272.73,-272.74,-50,551,-948,22.5,2.0,-29.1,22.4,2.1,-28.8,5.73,2.67,-29.2,25.6
2012-01-20 01:46:00,0.0,1.9253,0.0009,405.03,0.27,0.7,7.4,138.13,28.30,24.60,36.32,0.04,-272.73,-272.73,-51,550,-948,22.4,2.0,-29.1,22.3,2.1,-28.8,5.73,2.23,-29.4,25.4
2012-01-20 01:47:00,0.0,1.9247,0.0009,405.10,0.22,-0.2,4.1,138.14,28.28,24.60,36.32,0.04,-272.74,-272.74,-49,550,-948,22.4,2.0,-29.2,22.2,2.1,-28.9,5.73,2.50,-29.5,25.2
2012-01-20 01:48:00,0.0,1.9237,0.0009,404.96,0.25,-0.8,1.4,138.15,28.25,24.60,36.32,0.04,-272.74,-272.74,-51,550,-948,22.3,2.0,-29.2,22.2,2.1,-28.9,5.73,2.60,-29.7,25.1
2012-01-20 01:49:00,0.0,1.9229,0.0013,404.91,0.19,-1.0,0.0,138.15,28.23,24.60,36.32,0.04,-272.74,-272.73,-50,550,-948,22.3,2.0,-29.3,22.1,2.1,-28.9,5.73,2.19,-29.8,25.0
2012-01-20 01:50:00,0.0,1.9218,0.0009,404.91,0.22,-1.0,0.0,138.16,28.20,24.60,36.31,0.04,-272.73,-272.74,-51,550,-948,22.2,2.0,-29.1,22.1,2.1,-29.0,5.73,2.62,-29.9,24.9
2012-01-20 01:51:00,0.0,1.9206,0.0010,404.80,0.22,-1.0,0.4,138.16,28.16,24.60,36.32,0.04,-272.74,-272.74,-51,549,-948,22.2,2.0,-29.2,22.0,2.1,-29.0,5.73,2.45,-30.0,24.9
2012-01-20 01:52:00,0.0,1.9201,0.0010,404.79,0.23,-1.0,0.2,138.16,28.13,24.60,36.31,0.04,-272.73,-272.74,-50,549,-948,22.1,2.0,-29.2,22.0,2.1,-28.9,5.73,2.34,-30.0,25.4
2012-01-20 01:53:00,0.0,1.9204,0.0009,404.73,0.23,-1.0,0.0,138.15,28.10,24.60,36.31,0.04,-272.73,-272.74,-51,549,-948,22.1,2.0,-29.2,22.0,2.1,-28.9,5.73,2.43,-29.9,25.8
2012-01-20 01:54:00,0.0,1.9204,0.0009,404.66,0.22,-1.0,0.0,138.15,28.08,24.60,36.32,0.04,-272.74,-272.74,-51,549,-948,22.1,2.0,-29.2,22.0,2.1,-28.9,5.73,2.48,-29.8,26.0
2012-01-20 01:55:00,0.0,1.9205,0.0010,404.58,0.23,-0.8,1.8,138.14,28.07,24.60,36.32,0.04,-272.74,-272.74,-50,549,-948,22.1,2.0,-29.2,22.0,2.1,-28.8,5.73,2.49,-29.7,26.2
2012-01-20 01:56:00,0.0,1.9202,0.0011,404.68,0.24,-0.4,3.8,138.14,28.07,24.60,36.32,0.04,-272.73,-272.73,-50,549,-948,22.2,2.1,-29.1,22.1,2.1,-28.8,5.73,2.47,-29.7,26.3
2012-01-20 01:57:00,0.0,1.9200,0.0009,404.71,0.21,-1.0,0.0,138.13,28.07,24.60,36.31,0.04,-272.73,-272.74,-50,549,-948,22.2,2.0,-29.1,22.1,2.1,-28.8,5.73,2.43,-29.6,26.4
2012-01-20 01:58:00,0.0,1.9214,0.0011,404.70,0.22,-1.0,0.0,138.13,28.08,24.60,36.32,0.04,-272.74,-272.74,-50,549,-947,22.2,2.0,-29.1,22.1,2.1,-28.8,5.73,2.40,-29.5,26.5
2012-01-20 01:59:00,0.0,1.9222,0.0010,404.68,0.24,-0.7,2.1,138.12,28.09,24.60,36.32,0.04,-272.73,-272.74,-50,549,-947,22.3,2.0,-29.1,22.1,2.1,-28.7,5.73,2.42,-29.4,26.6
2012-01-20 02:00:00,0.0,1.9232,0.0009,404.65,0.25,0.3,6.5,138.12,28.11,24.60,36.32,0.04,-272.73,-272.74,-50,549,-947,22.3,2.0,-29.1,22.2,2.1,-28.8,5.73,2.42,-29.3,26.7
2012-01-20 02:01:00,0.0,1.9236,0.0009,404.68,0.24,2.6,11.3,138.12,28.12,24.60,36.32,0.04,-272.74,-272.74,-50,549,-947,22.3,2.0,-29.2,22.2,2.1,-28.9,5.73,2.42,-29.2,26.8
2012-01-20 02:02:00,0.0,1.9243,0.0008,404.70,0.25,0.8,4.9,138.11,28.14,24.60,36.32,0.04,-272.73,-272.74,-50,549,-947,22.3,2.0,-29.2,22.2,2.1,-28.9,5.73,2.42,-29.1,26.9
2012-01-20 02:03:00,0.0,1.9241,0.0009,404.61,0.23,4.0,12.3,138.11,28.17,24.60,36.32,0.04,-272.74,-272.74,-50,549,-947,22.3,2.0,-29.2,22.3,2.1,-28.8,5.73,2.44,-29.1,27.0
2012-01-20 02:04:00,0.0,1.9245,0.0008,404.66,0.20,7.3,18.0,138.11,28.19,24.60,36.32,0.04,-272.73,-272.74,-50,549,-947,22.4,2.0,-29.2,22.3,2.1,-28.8,5.73,2.45,-29.0,27.1
2012-01-20 02:05:00,0.0,1.9247,0.0009,404.73,0.26,10.8,15.3,138.11,28.21,24.60,36.32,0.04,-272.74,-272.74,-50,549,-948,22.4,2.0,-29.2,22.3,2.1,-28.8,5.73,2.46,-28.9,27.1
2012-01-20 02:06:00,0.0,1.9249,0.0008,404.74,0.21,14.5,22.4,138.10,28.23,24.60,36.33,0.04,-272.74,-272.73,-50,549,-947,22.4,2.0,-29.2,22.4,2.1,-28.8,5.73,2.47,-28.9,27.2
2012-01-20 02:07:00,0.0,1.9251,0.0009,404.72,0.25,17.6,24.3,138.10,28.25,24.60,36.33,0.04,-272.74,-272.74,-50,549,-947,22.5,2.0,-29.1,22.4,2.1,-28.8,5.73,2.48,-28.8,27.3
2012-01-20 02:08:00,0.0,1.9259,0.0008,404.84,0.20,17.6,22.8,138.10,28.27,24.60,36.32,0.04,-272.74,-272.74,-50,549,-947,22.5,2.0,-29.1,22.4,2.1,-28.7,5.73,2.48,-28.7,27.3
2012-01-20 02:09:00,0.0,1.9261,0.0009,404.82,0.20,15.2,21.6,138.10,28.29,24.60,36.33,0.04,-272.74,-272.74,-50,550,-947,22.6,2.0,-29.1,22.5,2.1,-28.7,5.73,2.47,-28.7,27.3
2012-01-20 02:10:00,0.0,1.9256,0.0010,404.81,0.20,19.9,21.6,138.10,28.31,24.60,36.33,0.04,-272.73,-272.74,-50,550,-948,22.6,2.0,-29.1,22.5,2.1,-28.7,5.73,2.40,-28.6,26.8
2012-01-20 02:11:00,0.0,1.9253,0.0009,404.74,0.23,14.4,18.7,138.11,28.32,24.60,36.33,0.04,-272.74,-272.74,-50,551,-948,22.6,2.0,-29.1,22.5,2.1,-28.7,5.73,2.29,-28.8,26.2
2012-01-20 02:12:00,0.0,1.9259,0.0010,404.74,0.25,7.0,14.3,138.11,28.32,24.60,36.32,0.04,-272.74,-272.74,-51,550,-948,22.5,2.0,-29.1,22.4,2.1,-28.7,5.73,2.61,-28.9,25.9
2012-01-20 02:13:00,0.0,1.9255,0.0009,404.71,0.22,7.0,17.5,138.12,28.32,24.60,36.33,0.04,-272.73,-272.74,-49,550,-948,22.5,2.0,-29.2,22.4,2.1,-28.8,5.73,2.49,-29.0,25.6
2012-01-20 02:14:00,0.0,1.9245,0.0008,404.73,0.25,4.6,10.9,138.13,28.30,24.60,36.33,0.04,-272.74,-272.74,-51,551,-948,22.5,2.0,-29.1,22.3,2.1,-28.8,5.73,2.23,-29.1,25.4
2012-01-20 02:15:00,0.0,1.9240,0.0011,404.87,0.27,1.8,9.1,138.14,28.29,24.60,36.32,0.04,-272.74,-272.74,-51,550,-948,22.4,2.0,-29.1,22.3,2.1,-28.8,5.73,2.64,-29.2,25.2
2012-01-20 02:16:00,0.0,1.9238,0.0009,404.83,0.21,-0.9,0.5,138.14,28.26,24.60,36.32,0.04,-272.74,-272.74,-50,550,-948,22.4,2.0,-29.0,22.2,2.1,-28.8,5.73,2.44,-29.5,25.1
2012-01-20 02:17:00,0.0,1.9230,0.0011,404.72,0.21,-1.0,0.1,138.15,28.24,24.60,36.32,0.04,-272.73,-272.73,-52,550,-949,22.3,2.0,-29.1,22.1,2.1,-28.8,5.73,2.25,-29.6,25.0
2012-01-20 02:18:00,0.0,1.9218,0.0009,404.70,0.23,-0.6,3.2,138.15,28.21,24.60,36.32,0.04,-272.74,-272.74,-50,550,-948,22.3,2.0,-29.1,22.1,2.1,-28.8,5.73,2.68,-29.7,25.0